Location: Fond Mahaut
(18.0707°N, 63.0465°W)
Time: 08:51:14
(UTC+00:00)

S3M - Pass Details

Date: 08 December 2019
Orbit: 948 x 1005 km, 83.0° (Epoch: 26 January)

Event Time Altitude Azimuth Distance (km) Brightness Sun altitude
Enters shadow 23:41:48 - 354° (N) 3,687 6.9 -28.8°
Exits shadow 23:50:26 79° 285° (WNW) 971 3.9 -30.8°
Maximum altitude 23:50:34 80° 267° (W) 970 3.9 -30.8°
Drops below altitude 10° 23:56:39 10° 181° (S) 2,663 6.4 -32.2°
Sets 23:59:07 0° 180° (S) 3,606 7.2 -32.8°
